Location: Pedholt
(56.0260°N, 10.2097°E)
Time: 01:37:41
(UTC+00:00)

Transit 2A Rocket - Pass Details

Date: 04 August 2021
Orbit: 586 x 917 km, 66.7° (Epoch: 27 September)

Event Time Altitude Azimuth Distance (km) Brightness Sun altitude
Rises 18:36:22 0° 309° (NW) 3,129 10.1 4.6°
Reaches altitude 10° 18:38:50 10° 318° (NW) 2,261 8.9 4.3°
Maximum altitude 18:43:38 36° 25° (NNE) 1,236 6.2 3.6°
Drops below altitude 10° 18:48:50 10° 92° (E) 2,459 7.1 3.0°
Sets 18:51:36 0° 101° (E) 3,440 7.7 2.6°
